TimeCST,TemperatureF,Dew PointF,Humidity,Sea Level PressureIn,VisibilityMPH,Wind Direction,Wind SpeedMPH,Gust SpeedMPH,PrecipitationIn,Events,Conditions,WindDirDegrees,DateUTC
12:15 AM,58.1,54.7,88,30.30,10.0,SE,3.5,-,N/A,Rain,Light Rain,140,2013-11-22 06:15:00
12:35 AM,58.1,54.5,88,30.30,10.0,Calm,Calm,-,N/A,,Mostly Cloudy,0,2013-11-22 06:35:00
12:55 AM,58.1,54.5,88,30.29,10.0,SE,3.5,-,N/A,,Mostly Cloudy,140,2013-11-22 06:55:00
1:15 AM,58.1,54.0,86,30.29,10.0,SSE,3.5,-,N/A,Rain,Light Rain,150,2013-11-22 07:15:00
1:35 AM,57.7,54.0,87,30.30,10.0,SE,3.5,-,N/A,,Overcast,140,2013-11-22 07:35:00
1:55 AM,57.7,53.8,87,30.30,10.0,Calm,Calm,-,N/A,,Overcast,0,2013-11-22 07:55:00
2:15 AM,57.7,53.6,86,30.30,10.0,SE,4.6,-,N/A,,Overcast,130,2013-11-22 08:15:00
2:35 AM,57.6,53.2,85,30.29,10.0,SE,4.6,-,N/A,,Overcast,130,2013-11-22 08:35:00
2:55 AM,57.4,52.9,85,30.28,10.0,SE,6.9,-,N/A,,Overcast,130,2013-11-22 08:55:00
3:15 AM,56.8,52.5,85,30.28,10.0,ESE,4.6,-,N/A,,Overcast,120,2013-11-22 09:15:00
3:35 AM,56.5,52.0,85,30.28,10.0,SSE,3.5,-,N/A,,Mostly Cloudy,150,2013-11-22 09:35:00
3:55 AM,55.9,51.8,86,30.28,10.0,SE,3.5,-,N/A,Rain,Light Rain,140,2013-11-22 09:55:00
4:15 AM,55.4,51.8,88,30.28,10.0,Calm,Calm,-,N/A,,Scattered Clouds,0,2013-11-22 10:15:00
4:35 AM,55.0,51.6,88,30.28,10.0,ESE,4.6,-,N/A,,Mostly Cloudy,120,2013-11-22 10:35:00
4:55 AM,54.9,51.3,88,30.27,10.0,SE,3.5,-,N/A,,Scattered Clouds,130,2013-11-22 10:55:00
5:15 AM,54.7,51.1,88,30.26,10.0,SE,5.8,-,N/A,,Clear,130,2013-11-22 11:15:00
5:35 AM,54.7,51.1,88,30.26,10.0,SE,5.8,-,N/A,,Clear,140,2013-11-22 11:35:00
5:55 AM,54.7,50.9,87,30.26,10.0,SE,5.8,-,N/A,,Mostly Cloudy,130,2013-11-22 11:55:00
6:15 AM,54.7,51.1,88,30.26,10.0,SE,4.6,-,N/A,,Mostly Cloudy,140,2013-11-22 12:15:00
6:35 AM,54.7,51.1,88,30.27,10.0,SE,5.8,-,N/A,,Overcast,140,2013-11-22 12:35:00
6:55 AM,55.0,51.3,87,30.27,10.0,SSE,4.6,-,N/A,,Overcast,150,2013-11-22 12:55:00
7:15 AM,55.4,51.8,88,30.27,7.0,SSE,4.6,-,N/A,,Overcast,150,2013-11-22 13:15:00
7:35 AM,56.1,52.0,86,30.28,7.0,Calm,Calm,-,N/A,,Overcast,0,2013-11-22 13:35:00
7:55 AM,56.7,52.3,85,30.29,7.0,Calm,Calm,-,N/A,,Overcast,0,2013-11-22 13:55:00
8:15 AM,57.0,52.7,85,30.29,10.0,Calm,Calm,-,N/A,,Overcast,0,2013-11-22 14:15:00
8:35 AM,57.2,52.7,85,30.30,10.0,Calm,Calm,-,N/A,,Overcast,0,2013-11-22 14:35:00
8:55 AM,57.6,53.2,85,30.30,10.0,Calm,Calm,-,N/A,,Overcast,0,2013-11-22 14:55:00
9:15 AM,58.1,53.6,85,30.31,7.0,Calm,Calm,-,N/A,,Overcast,0,2013-11-22 15:15:00
9:35 AM,58.3,53.6,84,30.31,10.0,ESE,3.5,-,N/A,,Overcast,110,2013-11-22 15:35:00
9:55 AM,58.3,54.0,86,30.31,7.0,ESE,4.6,-,N/A,,Overcast,110,2013-11-22 15:55:00
10:15 AM,57.9,54.7,89,30.31,7.0,Calm,Calm,-,N/A,,Light Drizzle,0,2013-11-22 16:15:00
10:35 AM,58.1,55.0,90,30.30,7.0,Calm,Calm,-,N/A,,Overcast,0,2013-11-22 16:35:00
10:55 AM,58.5,55.0,88,30.30,7.0,Calm,Calm,-,N/A,Rain,Light Rain,0,2013-11-22 16:55:00
11:15 AM,58.5,55.6,90,30.29,5.0,South,4.6,-,0.01,Rain,Light Rain,180,2013-11-22 17:15:00
11:35 AM,58.6,56.3,92,30.28,4.0,South,5.8,-,0.01,,Heavy Drizzle,180,2013-11-22 17:35:00
11:55 AM,58.3,56.8,95,30.26,3.0,SSE,5.8,-,0.05,Rain,Rain,160,2013-11-22 17:55:00
12:15 PM,58.5,57.2,96,30.22,4.0,SE,9.2,-,N/A,,Light Drizzle,140,2013-11-22 18:15:00
12:35 PM,58.6,57.4,96,30.23,4.0,North,3.5,-,N/A,Rain,Rain,10,2013-11-22 18:35:00
12:55 PM,59.2,57.7,95,30.23,4.0,South,4.6,-,0.01,Rain,Rain,190,2013-11-22 18:55:00
1:15 PM,59.2,58.1,96,30.24,4.0,Calm,Calm,-,0.01,,Drizzle,0,2013-11-22 19:15:00
1:35 PM,59.4,58.5,97,30.23,4.0,Calm,Calm,-,0.01,Rain,Light Rain,0,2013-11-22 19:35:00
1:55 PM,60.1,59.0,96,30.23,5.0,Calm,Calm,-,0.02,,Overcast,0,2013-11-22 19:55:00
2:15 PM,60.6,59.4,96,30.23,5.0,Calm,Calm,-,N/A,,Overcast,0,2013-11-22 20:15:00
2:35 PM,60.8,59.0,94,30.23,7.0,Calm,Calm,-,N/A,,Overcast,0,2013-11-22 20:35:00
2:55 PM,60.8,59.2,94,30.23,5.0,Calm,Calm,-,N/A,,Overcast,0,2013-11-22 20:55:00
3:15 PM,60.6,59.4,96,30.23,5.0,Calm,Calm,-,N/A,,Overcast,0,2013-11-22 21:15:00
3:35 PM,60.4,59.4,96,30.23,2.5,NNW,4.6,-,N/A,,Overcast,330,2013-11-22 21:35:00
3:55 PM,59.9,59.2,97,30.23,1.2,NW,4.6,-,N/A,,Overcast,320,2013-11-22 21:55:00
4:15 PM,59.7,59.0,97,30.23,1.2,NNW,3.5,-,N/A,,Overcast,340,2013-11-22 22:15:00
4:35 PM,59.2,59.0,99,30.23,2.5,NNW,3.5,-,N/A,,Overcast,330,2013-11-22 22:35:00
4:55 PM,59.0,58.6,99,30.23,4.0,North,3.5,-,N/A,,Overcast,350,2013-11-22 22:55:00
5:15 PM,59.0,58.3,97,30.23,4.0,North,5.8,-,N/A,,Overcast,350,2013-11-22 23:15:00
5:35 PM,58.6,58.1,98,30.23,5.0,North,4.6,-,N/A,,Overcast,10,2013-11-22 23:35:00
5:55 PM,58.5,57.9,98,30.24,5.0,North,3.5,-,N/A,,Overcast,360,2013-11-22 23:55:00
6:15 PM,58.5,57.7,97,30.24,5.0,North,3.5,-,N/A,,Overcast,360,2013-11-23 00:15:00
6:35 PM,58.5,57.7,97,30.24,3.0,North,3.5,-,N/A,,Overcast,360,2013-11-23 00:35:00
6:55 PM,58.5,58.1,99,30.24,1.8,North,5.8,-,N/A,Rain,Rain,360,2013-11-23 00:55:00
7:15 PM,58.3,58.1,99,30.24,2.0,North,5.8,-,N/A,,Light Drizzle,360,2013-11-23 01:15:00
7:35 PM,58.3,58.1,99,30.25,2.5,North,4.6,-,N/A,,Light Drizzle,10,2013-11-23 01:35:00
7:55 PM,58.3,57.9,99,30.25,4.0,North,3.5,-,N/A,,Overcast,10,2013-11-23 01:55:00
8:15 PM,57.9,57.4,98,30.26,3.0,North,8.1,-,N/A,Rain,Rain,350,2013-11-23 02:15:00
8:35 PM,55.9,55.4,98,30.27,3.0,North,6.9,-,N/A,,Light Drizzle,360,2013-11-23 02:35:00
8:55 PM,54.7,54.1,98,30.27,2.0,North,8.1,-,N/A,,Light Drizzle,350,2013-11-23 02:55:00
9:15 PM,53.2,52.9,99,30.28,2.5,North,8.1,-,N/A,,Drizzle,350,2013-11-23 03:15:00
9:35 PM,52.0,51.3,97,30.28,4.0,North,10.4,-,N/A,,Light Drizzle,350,2013-11-23 03:35:00
9:55 PM,51.3,50.4,97,30.28,4.0,North,8.1,-,N/A,,Drizzle,10,2013-11-23 03:55:00
10:15 PM,50.9,50.2,97,30.28,7.0,North,11.5,17.3,N/A,,Overcast,10,2013-11-23 04:15:00
10:35 PM,50.7,49.8,97,30.28,5.0,North,10.4,-,N/A,,Overcast,360,2013-11-23 04:35:00
10:55 PM,50.4,49.5,97,30.28,7.0,North,9.2,16.1,N/A,,Overcast,350,2013-11-23 04:55:00
11:15 PM,49.8,48.9,97,30.28,5.0,North,8.1,-,N/A,,Overcast,350,2013-11-23 05:15:00
11:35 PM,49.5,48.6,97,30.28,5.0,North,10.4,-,N/A,,Overcast,360,2013-11-23 05:35:00
11:55 PM,49.3,48.2,96,30.28,4.0,North,6.9,-,N/A,,Overcast,360,2013-11-23 05:55:00